Voltar ao catálogo

QIANFAN-14

AtivoComunicaçõesPO
NORAD 60392·PAYLOAD·🇨🇳 China

Lançado Aug 6, 2024 de Taiyuan Satellite Launch Center

Loading…

Próximas Passagens (próximas 24 horas)

TLE

AtualizadoSource: Space-Track

Época: Sep 14, 2026, 13:15 UTC

1 60392U 24140P   26257.55263747  .00000018  00000-0  95197-5 0  9997
2 60392  88.9639 270.6076 0018363 127.4508 232.8317 13.51018817104513

Acompanhe QIANFAN-14 em tempo real com AllMySat

Download on the App Store